Location: Acheville
(50.3840°N, 2.8827°E)
Time: 09:49:32
(UTC+00:00)

Lacrosse 4 Rocket - Pass Details

Date: 24 October 2021
Orbit: 537 x 619 km, 68.0° (Epoch: 30 November)

Event Time Altitude Azimuth Distance (km) Brightness Sun altitude
Rises 19:04:33 0° 315° (NW) 2,817 5.8 -23.8°
Reaches altitude 10° 19:07:09 10° 300° (WNW) 1,927 5.0 -24.2°
Maximum altitude 19:10:28 22° 250° (WSW) 1,334 3.8 -24.8°
Drops below altitude 10° 19:13:50 10° 200° (SSW) 1,950 4.2 -25.3°
Enters shadow 19:14:56 - 192° (SSW) 2,311 4.5 -25.5°
